User: anonymous   Login
Location: Raven Hill Discovery Center
(45.1336°N, 85.0553°W)
Time: 11:56:17
(UTC-04:00)
Language:

Cosmos 1470 - Orbit

View from above orbital plane
View from above orbital plane
View from above satellite
View from above satellite

Ground track
Ground track

The orbit data is extracted from the following two-line orbital elements,

1 14147U 83061A   15209.51434860  .00000770  00000-0  46432-4 0  9990
2 14147 082.4905 355.6744 0014857 100.3446 259.9459 15.09227691500734
Epoch (UTC): 28 July 2015 12:20:39
Eccentricity: 0.0014857
inclination: 82.4905°
perigee height: 528 km
apogee height: 549 km
right ascension of ascending node: 355.6744°
argument of perigee: 100.3446°
revolutions per day: 15.09227691
mean anomaly at epoch: 259.9459°
orbit number at epoch: 50073

The dashed part of the orbit path shows where the satellite is in the earth's shadow,  

DLR